Grizzly Air Cargo 5150


PADK
Adak Airport
Adak Island, Alaska, US
PASY
Eareckson Air Station
Shemya, Alaska, US

Activity Log

Date Flight Route Aircraft Duration
08/26/2019 GRZ522 ADK J115 SYA B722 1h 01m
06/28/2019 GRZ522 ADK J115 SYA B722 1h 12m
06/28/2019 GRZ522 ADK J115 SYA B722 1h 07m
03/28/2019 GRZ522 ADK J115 SYA B722 1h 21m
03/13/2019 GRZ522 ADK J115 SYA B722 1h 12m

Route Details

Aircraft Information
Primary: Boeing 727-200F
Backup: Boeing 737-800BCF
Route Data
Distance: 344nm
Sched. Duration: 1h 00m
Avg. Duration: 1h 10m (+11m)
Times Flown: 5
Recm'd Route: ADK J115 SYA
Planned Altitude: 32,000ft
Origin Wx: PADK 251856Z AUTO 24016KT 7SM -SN FEW018 SCT025 OVC044 00/M02 A3018 RMK AO2 PK WND 25029/1844 RAB29E32SNB32 SLP221 P0000 T00001017 FZRANO
Dest. Wx: PASY 251857Z 23020KT 7SM SCT036 SCT049 M01/M03 A2988 RMK AO2A PRESRR SLP120 SLP ESTMD RVRNO PNO FZRANO $
Notes: USTRANSCOM CONTRACT FLIGHT

Financial History
Total Freight: 173,682lbs
Average Load: 34,736lbs/flt
Fuel Used: 41,076lbs
Avg. Fuel Used: 8,215lbs/flt
Fuel Expense: $37,790
Avg. Fuel Expense: $7,558
Avg. Fuel Cost: $0.92/lbs
Total Gross Income: $257,049
Pilot Pay: $1,145
Total Expenses: $28,021
Total Revenue: $189,828
Average Revenue: $51,409.87